Regional Weather Roundup
Issued by NWS

Home | Current Version | Previous Version | Graphics & Text | Print | Product List | Glossary On
Versions: 1 2 3 4 5 6 7 8 9 10 11 12 13 14 15 16 17 18 19 20 21 22 23 24 25 26 27 28 29 30 31 32 33 34 35 36 37 38 39 40 41 42 43 44 45 46 47 48 49 50
000
ASUS45 KBOI 311410
RWRID
WEATHER ROUNDUP FOR IDAHO
NATIONAL WEATHER SERVICE BOISE ID
800 AM MDT THU JUL 31 2014

NOTE: "FAIR" INDICATES FEW OR NO CLOUDS BELOW 12000 FEET
WITH NO SIGNIFICANT WEATHER AND/OR OBSTRUCTIONS TO VISIBILITY

IDZ012-014-311500-
SOUTHWEST IDAHO


CITY           SKY/WX    TMP DP  RH WIND       PRES   REMARKS
BOISE          SUNNY     71  49  45 S3        30.12S
CALDWELL       SUNNY     64  48  55 E3        30.13R
MOUNTAIN HOME  SUNNY     68  51  55 E5        30.14R
$$

IDZ016-017-311500-
SOUTHCENTRAL IDAHO


CITY           SKY/WX    TMP DP  RH WIND       PRES   REMARKS
BURLEY         SUNNY     59  52  77 E8        30.19S
JEROME         SUNNY     64  51  62 NE13      30.19R
TWIN FALLS     SUNNY     63  52  67 CALM      30.19R
$$

IDZ019>023-311500-
SOUTHEAST IDAHO


CITY           SKY/WX    TMP DP  RH WIND       PRES   REMARKS
IDAHO FALLS    SUNNY     57  51  80 N3        30.27S
POCATELLO      SUNNY     61  49  64 SE3       30.25S
REXBURG        SUNNY     54  48  80 NE3       30.28S
$$

IDZ006-010-011-018-031-032-311500-
CENTRAL IDAHO MOUNTAINS


CITY           SKY/WX    TMP DP  RH WIND       PRES   REMARKS
MCCALL         SUNNY     56  44  64 CALM      30.26S
HAILEY         MOSUNNY   55  46  71 MISG      30.31S
STANLEY          N/A     44  43  96 CALM      30.42R
SALMON         SUNNY     55  48  76 CALM      30.26S
CHALLIS        SUNNY     56  44  64 CALM      30.32R
$$

IDZ002-004-006-007-026-311500-
NORTHERN IDAHO


CITY           SKY/WX    TMP DP  RH WIND       PRES   REMARKS
LEWISTON       SUNNY     74  48  39 CALM      30.04R
LOWELL           N/A     60  54  80 NW6       30.12S
COEUR D`ALENE  SUNNY     64  48  55 E7        30.06R
MULLAN PASS    SUNNY     68  33  27 W3        30.31R
$$


USA.gov is the U.S. government's official web portal to all federal, state and local government web resources and services.